Zurück zum Katalog

CZ-6A DEB

AktivSSO
NORAD 54623·DEBRIS·🇨🇳 China

Gestartet Nov 11, 2022 von Taiyuan Satellite Launch Center

Loading…

Nächste Überflüge (nächste 24 Stunden)

TLE

AktuellSource: Space-Track

Epoche: Sep 13, 2026, 23:05 UTC

1 54623U 22151NZ  26256.96211022  .00000485  00000-0  28188-3 0  9992
2 54623  98.8467 260.5523 0044046  80.2374 280.3769 14.12800503196431

Verfolge CZ-6A DEB in Echtzeit mit AllMySat

Download on the App Store